This demonstration page uses our WeatherBlox Daily Observations layout. Learn more.

Left ArrowRight Arrow

39.92423, -83.80882

Hourly Observations for May 21, 2018

Temp ( °F °C ) Dew Point ( °F °C ) Humidity (%) Winds ( mph kmh ) Pressure ( in mb ) Visibility ( mi km ) Precip ( " mm )
12:56 am 00:56 Clear 63 17.2 60 15.6 90 90 ENE 6 9 30.13 1020 10 16.0934 0 0
1:56 am 01:56 Partly Cloudy 62 16.7 60 15.6 93 93 ENE 9 15 30.13 1020 10 16.0934 0 0
2:56 am 02:56 Mostly Cloudy 62 16.7 59 15 90 90 ENE 9 15 30.11 1020 10 16.0934 0 0
3:56 am 03:56 Cloudy 62 16.7 58 14.4 86 86 ENE 8 13 30.12 1020 10 16.0934 0 0
4:56 am 04:56 Cloudy 61 16.1 58 14.4 90 90 ENE 10 17 30.12 1020 10 16.0934 0 0
5:56 am 05:56 Mostly Cloudy 60 15.6 57 13.9 90 90 ENE 7 11 30.13 1020 10 16.0934 0 0
6:56 am 06:56 Mostly Cloudy 60 15.6 57 13.9 90 90 E 8 13 30.14 1021 10 16.0934 0 0
7:56 am 07:56 Cloudy 62 16.7 58 14.4 86 86 E 12 19 30.15 1021 10 16.0934 0 0
8:56 am 08:56 Mostly Cloudy 64 17.8 59 15 84 84 E 12 19 30.16 1022 10 16.0934 0 0
9:56 am 09:56 Partly Cloudy 68 20 62 16.7 81 81 E 12 19 30.16 1021 10 16.0934 0 0
10:56 am 10:56 Sunny 71 21.7 64 17.8 79 79 E 13 20 30.16 1021 10 16.0934 0 0
11:56 am 11:56 Sunny 74 23.3 65 18.3 74 74 ESE 10 17 30.14 1021 10 16.0934 0 0
12:56 pm 12:56 Sunny 77 25 66 18.9 69 69 SE 10 17 30.13 1020 10 16.0934 0 0
1:56 pm 13:56 Mostly Sunny 79 26.1 67 19.4 67 67 SE 8 13 30.1 1019 10 16.0934 0 0
2:56 pm 14:56 Partly Cloudy 80 26.7 68 20 67 67 SSE 9 15 30.07 1018 10 16.0934 0 0
3:56 pm 15:56 Partly Cloudy 82 27.8 68 20 63 63 ESE 9 15 30.04 1017 10 16.0934 0 0
4:56 pm 16:56 Partly Cloudy 82 27.8 67 19.4 60 60 VRB 3 6 30.01 1016 10 16.0934 0 0
5:56 pm 17:56 Mostly Sunny 82 27.8 67 19.4 60 60 SSW 5 7 30 1016 8 12.87472 0 0
6:56 pm 18:56 Sunny 81 27.2 65 18.3 58 58 S 6 9 30.01 1016 10 16.0934 0 0
7:56 pm 19:56 Sunny 79 26.1 66 18.9 65 65 SSW 3 6 30.01 1016 10 16.0934 0 0
8:20 pm 20:20 Partly Cloudy with Nearby Thunderstorms 79 26 66 19 65 65 NW 18 30 29.97 1015 10 16.0934 0 0
8:36 pm 20:36 Mostly Cloudy 72 22 64 18 78 78 NW 26 43 30.03 1017 10 16.0934 0 0
8:43 pm 20:43 Mostly Cloudy with Nearby Thunderstorms 70 21 64 18 83 83 NW 23 37 30 1016 9 14.48406 0.01 0.254
8:56 pm 20:56 Cloudy with Light Thunderstorms 67 19.4 64 17.8 91 91 WNW 14 22 30.03 1017 10 16.0934 0.02 0.508
9:31 pm 21:31 Cloudy with Light Rain 66 19 64 18 94 94 W 5 7 30.03 1017 10 16.0934 0 0.0254
9:56 pm 21:56 Cloudy 67 19.4 65 18.3 93 93 WNW 8 13 30.05 1018 10 16.0934 0 0.0254
10:51 pm 22:51 Cloudy with Heavy Rain 66 19 64 18 94 94 ESE 5 7 30.06 1018 4 6.43736 0.05 1.27
10:56 pm 22:56 Cloudy with Rain 66 18.9 65 18.3 96 96 SE 6 9 30.08 1019 4 6.43736 0.05 1.27
11:12 pm 23:12 Cloudy with Rain 66 19 64 18 94 94 ESE 8 13 30.06 1018 8 12.87472 0.01 0.254
11:28 pm 23:28 Mostly Cloudy with Nearby Thunderstorms 66 19 64 18 94 94 ESE 9 15 30.06 1018 10 16.0934 0.02 0.508
11:43 pm 23:43 Cloudy with Light Rain 66 19 64 18 94 94 SE 10 17 30.06 1018 10 16.0934 0.03 0.762
11:56 pm 23:56 Cloudy with Light Rain 66 18.9 65 18.3 96 96 SE 9 15 30.07 1018 10 16.0934 0.04 1.016

Powered by AerisWeather